Yakutat, AK

6:00 PM AKDT on March 22, 2017 (GMT -0800)
Yakutat

Weather History for PAYA - March, 2013

Change the Weather History Date:

Saturday, March 23, 2013

  Actual Average Record
Temperature  
Mean Temperature 31 °F 33 °F  
Max Temperature 33 °F 40 °F 53 °F (2016)
Min Temperature 29 °F 25 °F -3 °F (1962)
Degree Days  
Heating Degree Days 34 32  
Month to date heating degree days 845 770  
Since 1 July heating degree days 7090 6899  
Cooling Degree Days 0    
Month to date cooling degree days 0  
Year to date cooling degree days 0  
Moisture  
Dew Point 30 °F    
Average Humidity 0    
Maximum Humidity 0    
Minimum Humidity 0    
Precipitation  
Precipitation 0.57 in 0.36 in 1.53 in (1993)
Month to date precipitation 2.44 8.49  
Year to date precipitation 29.09 33.01  
Snow  
Snow 7.80 in 0.90 in 8.10 in (1964)
Month to date snowfall 22.5 20.7  
Since 1 July snowfall 138.0 122.9  
Snow Depth 24.00 in    
Sea Level Pressure  
Sea Level Pressure 30.12 in    
Wind  
Wind Speed 8 mph (East)    
Max Wind Speed 13 mph    
Max Gust Speed 20 mph    
Visibility 2 miles    
Events Fog , Snow    
T = Trace of Precipitation, MM = Missing Value Source: NWS Daily Summary

Daily Weather History Graph

Daily Weather History Graph

Search for Another Location

Airport or City:

Trip Planner

Search our weather history database for the weather conditions in past years. The results will help you decide how hot, cold, wet, or windy it might be!

Date:

Astronomy

Mar. 23, 2013 Rise Set
Actual Time 7:10 AM AKDT 7:41 PM AKDT
Civil Twilight 6:28 AM AKDT 8:22 PM AKDT
Nautical Twilight 5:39 AM AKDT 9:12 PM AKDT
Astronomical Twilight 4:44 AM AKDT 10:08 PM AKDT
Moon 3:34 PM AKDT 5:38 AM AKDT
Length of Visible Light 13h 53m
Length of Day
12h 31m
Waxing Gibbous, 86% of the Moon is Illuminated
Mar 23
Waxing Gibbous
Mar 27
Full
Apr 2
Last Quarter
Apr 10
New
Apr 18
First Quarter

Hourly Weather History & Observations

Time (AKDT) Temp. Windchill Dew Point Humidity Pressure Visibility Wind Dir Wind Speed Gust Speed Precip Events Conditions
12:23 AM 28.4 °F 21.2 °F 28.4 °F 100% 30.21 in 1.0 mi ENE 6.9 mph - 0.03 in Snow Light Snow
12:31 AM 28.4 °F 21.2 °F 28.4 °F 100% 30.21 in 1.2 mi East 6.9 mph - 0.04 in Snow Light Snow
12:40 AM 28.4 °F 23.3 °F 28.4 °F 100% 30.21 in 1.8 mi East 4.6 mph - 0.04 in Snow Light Snow
12:53 AM 28.9 °F 22.8 °F 28.0 °F 96% 30.21 in 1.8 mi East 5.8 mph - 0.04 in Snow Light Snow
1:19 AM 28.4 °F 22.2 °F 28.4 °F 100% 30.20 in 1.2 mi ENE 5.8 mph - 0.01 in Snow Light Snow
1:53 AM 28.9 °F 21.9 °F 28.0 °F 96% 30.19 in 1.0 mi East 6.9 mph - 0.03 in Snow Light Snow
2:49 AM 30.2 °F 24.3 °F 28.4 °F 93% 30.19 in 2.0 mi East 5.8 mph - 0.02 in Snow Light Snow
2:53 AM 30.0 °F 24.1 °F 28.0 °F 92% 30.19 in 1.8 mi East 5.8 mph - 0.02 in Snow Light Snow
3:07 AM 30.2 °F 24.3 °F 28.4 °F 93% 30.18 in 1.0 mi East 5.8 mph - 0.01 in Snow Light Snow
3:28 AM 30.2 °F 24.3 °F 28.4 °F 93% 30.18 in 1.8 mi ENE 5.8 mph - 0.02 in Snow Light Snow
3:38 AM 30.2 °F 23.4 °F 28.4 °F 93% 30.18 in 1.2 mi East 6.9 mph - 0.02 in Snow Light Snow
3:49 AM 30.2 °F 22.6 °F 28.4 °F 93% 30.17 in 1.8 mi East 8.1 mph - 0.02 in Snow Light Snow
3:53 AM 30.0 °F 22.4 °F 28.0 °F 92% 30.17 in 1.5 mi East 8.1 mph - 0.02 in Snow Light Snow
4:10 AM 30.2 °F 23.4 °F 28.4 °F 93% 30.17 in 2.0 mi East 6.9 mph - 0.00 in Snow Light Snow
4:19 AM 30.2 °F 21.9 °F 28.4 °F 93% 30.17 in 1.5 mi East 9.2 mph - 0.00 in Snow Light Snow
4:31 AM 30.2 °F 23.4 °F 28.4 °F 93% 30.17 in 2.0 mi East 6.9 mph - 0.01 in Snow Light Snow
4:45 AM 30.2 °F 21.9 °F 28.4 °F 93% 30.17 in 3.0 mi East 9.2 mph - 0.01 in Snow Light Snow
4:53 AM 30.0 °F 22.4 °F 28.0 °F 92% 30.17 in 1.8 mi East 8.1 mph - 0.01 in Snow Light Snow
5:02 AM 28.4 °F 21.2 °F 28.4 °F 100% 30.16 in 2.0 mi East 6.9 mph - 0.00 in Snow Light Snow
5:17 AM 28.4 °F 21.2 °F 28.4 °F 100% 30.16 in 1.2 mi East 6.9 mph - 0.00 in Snow Light Snow
5:27 AM 28.4 °F 21.2 °F 28.4 °F 100% 30.15 in 0.8 mi East 6.9 mph - 0.01 in Snow Light Snow
5:33 AM 28.4 °F 21.2 °F 28.4 °F 100% 30.15 in 1.5 mi East 6.9 mph - 0.01 in Snow Light Snow
5:41 AM 28.4 °F 20.4 °F 28.4 °F 100% 30.15 in 2.0 mi East 8.1 mph - 0.01 in Snow Light Snow
5:45 AM 28.4 °F 21.2 °F 28.4 °F 100% 30.15 in 1.8 mi East 6.9 mph - 0.01 in Snow Light Snow
5:53 AM 28.9 °F 21.9 °F 28.0 °F 96% 30.15 in 2.0 mi East 6.9 mph - 0.01 in Snow Light Snow
6:03 AM 30.2 °F 22.6 °F 28.4 °F 93% 30.15 in 5.0 mi East 8.1 mph - 0.00 in Snow Light Snow
6:53 AM 30.0 °F 23.2 °F 28.0 °F 92% 30.14 in 9.0 mi East 6.9 mph - 0.00 in   Overcast
7:40 AM 30.2 °F 23.4 °F 28.4 °F 93% 30.14 in 3.0 mi East 6.9 mph - 0.00 in Snow Light Snow
7:46 AM 30.2 °F 23.4 °F 28.4 °F 93% 30.14 in 1.8 mi East 6.9 mph - 0.00 in Snow Light Snow
7:53 AM 30.0 °F 22.4 °F 28.0 °F 92% 30.14 in 1.2 mi East 8.1 mph - 0.00 in Snow Light Snow
8:02 AM 30.2 °F 22.6 °F 28.4 °F 93% 30.14 in 0.8 mi East 8.1 mph - 0.00 in Snow Light Snow
8:19 AM 30.2 °F 22.6 °F 28.4 °F 93% 30.13 in 1.0 mi East 8.1 mph - 0.01 in Snow Light Snow
8:32 AM 30.2 °F 22.6 °F 28.4 °F 93% 30.13 in 0.8 mi East 8.1 mph - 0.01 in Snow Light Snow
8:53 AM 30.9 °F 22.2 °F 28.9 °F 92% 30.13 in 1.2 mi East 10.4 mph - 0.01 in Snow Light Snow
9:13 AM 30.2 °F 21.3 °F 28.4 °F 93% 30.12 in 1.0 mi East 10.4 mph 17.3 mph 0.00 in Snow Light Snow
9:36 AM 30.2 °F 22.6 °F 28.4 °F 93% 30.12 in 1.2 mi East 8.1 mph - 0.01 in Snow Light Snow
9:46 AM 32.0 °F 24.2 °F 28.4 °F 87% 30.12 in 2.0 mi East 9.2 mph 16.1 mph 0.01 in Snow Light Snow
9:53 AM 32.0 °F 23.0 °F 28.9 °F 88% 30.12 in 2.5 mi East 11.5 mph 17.3 mph 0.01 in Snow Light Snow
10:02 AM 32.0 °F 23.6 °F 28.4 °F 87% 30.12 in 1.2 mi ESE 10.4 mph 17.3 mph 0.00 in Snow Light Snow
10:12 AM 30.2 °F 21.3 °F 30.2 °F 100% 30.12 in 0.8 mi East 10.4 mph 17.3 mph 0.00 in Snow Light Snow
10:30 AM 30.2 °F 21.9 °F 30.2 °F 100% 30.11 in 1.0 mi East 9.2 mph - 0.00 in Snow Light Snow
10:45 AM 30.2 °F 21.9 °F 30.2 °F 100% 30.11 in 0.8 mi East 9.2 mph - 0.00 in Snow Light Snow
10:53 AM 30.9 °F 21.7 °F 30.0 °F 96% 30.12 in 0.8 mi East 11.5 mph 17.3 mph 0.00 in Snow Light Snow
11:29 AM 32.0 °F 23.6 °F 30.2 °F 93% 30.11 in 0.8 mi East 10.4 mph 19.6 mph 0.00 in Snow Light Snow
11:42 AM 32.0 °F 23.6 °F 30.2 °F 93% 30.11 in 1.0 mi East 10.4 mph 18.4 mph 0.00 in Snow Light Snow
11:53 AM 32.0 °F 23.6 °F 30.0 °F 92% 30.11 in 0.8 mi East 10.4 mph 18.4 mph 0.00 in Snow Light Snow
12:00 PM 32.0 °F 24.2 °F 30.2 °F 93% 30.11 in 1.0 mi East 9.2 mph - 0.00 in Snow Light Snow
12:09 PM 32.0 °F 23.0 °F 30.2 °F 93% 30.10 in 0.8 mi East 11.5 mph 16.1 mph 0.00 in Snow Light Snow
12:38 PM 32.0 °F 24.2 °F 30.2 °F 93% 30.10 in 0.5 mi East 9.2 mph - 0.01 in Fog , Snow Snow
12:53 PM 32.0 °F 24.2 °F 30.0 °F 92% 30.10 in 0.5 mi East 9.2 mph 17.3 mph 0.01 in Fog , Snow Snow
1:53 PM 32.0 °F 24.2 °F 30.9 °F 96% 30.09 in 0.5 mi East 9.2 mph 17.3 mph 0.03 in Fog , Snow Snow
2:05 PM 32.0 °F 24.2 °F 30.2 °F 93% 30.08 in 0.8 mi East 9.2 mph - 0.00 in Snow Light Snow
2:34 PM 32.0 °F 24.8 °F 30.2 °F 93% 30.07 in 0.8 mi East 8.1 mph - 0.01 in Snow Light Snow
2:53 PM 32.0 °F 24.8 °F 32.0 °F 100% 30.08 in 0.8 mi East 8.1 mph - 0.01 in Snow Light Snow
3:15 PM 33.8 °F 26.4 °F 32.0 °F 93% 30.07 in 0.8 mi East 9.2 mph - 0.01 in Snow Light Snow
3:25 PM 33.8 °F 27.0 °F 32.0 °F 93% 30.07 in 0.8 mi East 8.1 mph - 0.01 in Snow Light Snow
3:53 PM 33.1 °F 25.5 °F 32.0 °F 96% 30.07 in 0.5 mi East 9.2 mph - 0.03 in Fog , Snow Snow
4:53 PM 32.0 °F 25.6 °F 32.0 °F 100% 30.06 in 0.2 mi East 6.9 mph - 0.07 in Fog , Snow Snow
5:11 PM 32.0 °F 25.6 °F 32.0 °F 100% 30.06 in 0.5 mi East 6.9 mph - 0.02 in Fog , Snow Snow
5:53 PM 33.1 °F 26.1 °F 32.0 °F 96% 30.05 in 0.5 mi East 8.1 mph - 0.06 in Fog , Snow Snow
6:53 PM 33.1 °F 26.9 °F 32.0 °F 96% 30.03 in 0.8 mi East 6.9 mph - 0.06 in Snow Light Snow
7:32 PM 33.8 °F 27.0 °F 32.0 °F 93% 30.02 in 0.8 mi East 8.1 mph - 0.03 in Snow Light Snow
7:46 PM 33.8 °F 27.0 °F 32.0 °F 93% 30.03 in 0.5 mi East 8.1 mph - 0.04 in Fog , Snow Snow
7:53 PM 33.1 °F 26.1 °F 32.0 °F 96% 30.03 in 0.8 mi East 8.1 mph - 0.05 in Snow Light Snow
8:00 PM 33.8 °F 27.0 °F 32.0 °F 93% 30.03 in 1.5 mi East 8.1 mph - 0.00 in Snow Light Snow
8:53 PM 33.1 °F 26.1 °F 32.0 °F 96% 30.03 in 1.8 mi East 8.1 mph - 0.03 in Snow Light Snow
9:15 PM 33.8 °F 27.0 °F 32.0 °F 93% 30.02 in 1.2 mi East 8.1 mph - 0.01 in Snow Light Snow
9:53 PM 33.1 °F 26.9 °F 32.0 °F 96% 30.03 in 1.2 mi East 6.9 mph - 0.04 in Snow Light Snow
10:05 PM 33.8 °F 27.0 °F 32.0 °F 93% 30.02 in 1.5 mi East 8.1 mph - 0.00 in Snow Light Snow
10:53 PM 33.1 °F 26.1 °F 32.0 °F 96% 30.02 in 1.5 mi East 8.1 mph - 0.03 in Snow Light Snow
11:17 PM 33.8 °F 27.7 °F 32.0 °F 93% 30.02 in 2.5 mi East 6.9 mph - 0.01 in Snow Light Snow
11:38 PM 33.8 °F 27.0 °F 32.0 °F 93% 30.02 in 3.0 mi East 8.1 mph - 0.02 in Snow Light Snow
11:53 PM 33.1 °F 26.1 °F 32.0 °F 96% 30.02 in 4.0 mi East 8.1 mph - 0.03 in Snow Light Snow